Flag for Japan

Past Weather in Fukuoka, Japan — Yesterday and Last 2 Weeks

Now
70 °F

Light rain. Low clouds.


Feels Like: 70 °F
Forecast: 79 / 72 °F
Wind: 3 mph from Northwest

Location: Fukuoka Airport

Current Time: Jul 4, 2020 at 2:55:08 am

Latest Report: Jul 4, 2020 at 2:19 am


Visibility: 4 mi

Pressure: 29.65 "Hg

Humidity: 100%

Dew Point: 70 °F

Location of FukuokaLocation

Past Weather in Fukuoka — Graph

°F

Fukuoka Temperature Yesterday

Maximum temperature yesterday: 79 °F (at 11:00 am)
Minimum temperature yesterday: 70 °F (at 6:41 pm)
Average temperature yesterday: 73 °F

High & Low Weather Summary for the Past Weeks

 TemperatureHumidityPressure
High93 °F (Jun 24, 2:18 pm)100% (Jun 19, 1:10 am)29.89 "Hg (Jun 19, 1:10 am)
Low64 °F (Jun 20, 12:30 am)28% (Jun 24, 2:33 pm)29.39 "Hg (Jun 30, 3:00 am)
Average76 °F78%29.69 "Hg
* Reported Jun 19 1:10 am — Jul 4 1:30 am, Fukuoka. Weather by CustomWeather, © 2020

Note: Actual official high and low records may vary slightly from our data, if they occured in-between our weather recording intervals... More about our weather records

Fukuoka Weather History for the Previous 24 Hours

Scroll right to see more
 ConditionsComfort  
Time TempWeatherWind HumidityBarometerVisibility
1:30 am
Sat, Jul 4
72 °FPartly cloudy.3 mph94%29.65 "HgN/A
1:00 am72 °FMostly cloudy.1 mph94%29.68 "HgN/A
12:30 am72 °FOvercast.3 mph94%29.68 "HgN/A
12:00 am72 °FMostly cloudy.3 mph94%29.68 "HgN/A
11:37 pm
Fri, Jul 3
70 °FMostly cloudy.2 mph100%29.71 "HgN/A
11:30 pm70 °FMostly cloudy.2 mph100%29.71 "HgN/A
11:00 pm70 °FMostly cloudy.1 mph100%29.71 "HgN/A
10:30 pm70 °FPartly cloudy.2 mph94%29.71 "HgN/A
10:00 pm70 °FLight rain. Partly cloudy.1 mph94%29.71 "HgN/A
9:30 pm70 °FLight rain. Partly cloudy.2 mph94%29.68 "HgN/A
9:00 pm70 °FLight rain. Partly cloudy.1 mph94%29.71 "Hg5 mi
8:30 pm70 °FLight rain. Partly cloudy.2 mph94%29.68 "Hg5 mi
8:00 pm70 °FLight rain. Partly cloudy.3 mph94%29.68 "HgN/A
7:30 pm70 °FLight rain. Fog.2 mph94%29.71 "Hg3 mi
7:00 pm70 °FSprinkles. Fog.2 mph94%29.71 "Hg3 mi
6:41 pm70 °FRain showers. Fog.6 mph94%29.71 "Hg2 mi
6:30 pm72 °FRain showers. Fog.3 mph88%29.71 "Hg2 mi
6:00 pm72 °FLight rain. Broken clouds.5 mph88%29.71 "HgN/A
5:30 pm72 °FLight rain. Broken clouds.5 mph88%29.68 "HgN/A
5:00 pm73 °FLight rain. Broken clouds.5 mph83%29.68 "HgN/A
4:30 pm75 °FLight rain. Broken clouds.6 mph78%29.71 "HgN/A
4:00 pm75 °FLight rain. Broken clouds.7 mph74%29.71 "HgN/A
3:30 pm75 °FLight rain. Broken clouds.15 mph78%29.71 "HgN/A
3:00 pm75 °FLight rain. Broken clouds.10 mph74%29.74 "HgN/A
2:30 pm77 °FLight rain. Broken clouds.7 mph74%29.77 "HgN/A
2:00 pm77 °FLight rain. Broken clouds.8 mph74%29.77 "HgN/A
1:30 pm77 °FLight rain. Broken clouds.6 mph74%29.80 "HgN/A
1:00 pm79 °FLight rain. Broken clouds.3 mph61%29.80 "HgN/A
12:30 pm79 °FLight rain. Broken clouds.7 mph65%29.80 "HgN/A
12:00 pm77 °FBroken clouds.8 mph69%29.80 "HgN/A
11:30 am79 °FPartly sunny.10 mph65%29.80 "HgN/A
11:00 am79 °FBroken clouds.14 mph65%29.80 "HgN/A
10:30 am77 °FBroken clouds.14 mph69%29.80 "HgN/A
9:30 am75 °FLight rain. Broken clouds.9 mph78%29.80 "HgN/A
9:00 am73 °FLight rain. Broken clouds.7 mph78%29.80 "HgN/A
8:30 am73 °FLight rain. Broken clouds.7 mph83%29.80 "HgN/A
8:00 am72 °FLight rain. Clear.6 mph83%29.83 "HgN/A
7:30 am72 °FLight rain. Clear.9 mph88%29.83 "HgN/A
7:00 am72 °FLight rain. Clear.2 mph94%29.83 "HgN/A
6:30 am73 °FLight rain. Clear.3 mph83%29.83 "HgN/A
6:00 am73 °FLight rain. Clear.2 mph83%29.83 "HgN/A
5:30 am73 °FLight rain. Clear.2 mph78%29.83 "HgN/A
5:00 am73 °FClear.3 mph78%29.83 "HgN/A
4:30 am73 °FClear.3 mph83%29.83 "HgN/A
4:00 am73 °FLight rain. Clear.3 mph78%29.83 "HgN/A
3:30 am73 °FClear.2 mph78%29.83 "HgN/A
3:00 am73 °FClear.3 mph78%29.83 "HgN/A
2:30 am73 °FClear.5 mph78%29.83 "HgN/A
2:00 am73 °FClear.5 mph83%29.86 "HgN/A
Weather by CustomWeather, © 2020

See weather overview